{"data":{"norad_id":32260,"epoch":"2026-09-19T11:03:45.907200Z","epoch_age_seconds":108022,"freshness":"FRESH","line1":"1 32260U 07047A   26262.46094800  .00000003  00000+0  00000+0 0  9991","line2":"2 32260  54.1706  76.1824 0168996  89.5854 272.3947  2.00551358138706","mean_motion":2.00551358,"eccentricity":0.0168996,"inclination_deg":54.1706,"raan_deg":76.1824,"arg_perigee_deg":89.5854,"mean_anomaly_deg":272.3947,"bstar":0,"rev_number":13870,"period_min":718.02056807813,"perigee_km":19734.414493411,"apogee_km":20632.169545119,"semimajor_km":26561.429019265,"source":"CELESTRAK","updated_at":"2026-09-20T09:00:46.086027Z"}}